Weather History for Fort Payne, AL

Change the Weather History Date:

Friday, November 16, 2012

  Actual Average (KRMG) Record (KRMG)
Temperature  
Mean Temperature 46 °F 51 °F  
Max Temperature 60 °F 63 °F 78 °F (2001)
Min Temperature 32 °F 38 °F 26 °F (1997)
Degree Days  
Heating Degree Days 19 14  
Month to date heating degree days 193  
Since 1 July heating degree days 370  
Moisture  
Dew Point 29 °F    
Average Humidity 67    
Maximum Humidity 100    
Minimum Humidity 20    
Precipitation  
Precipitation 0.00 in 0.17 in 0.96 in (2005)
Month to date precipitation 2.30  
Snow  
Snow 0.00 in - - ()
Month to date snowfall  
Since 1 July snowfall  
Since 1 September snowfall  
Snow Depth -    
Sea Level Pressure  
Sea Level Pressure 30.29 in    
Wind  
Wind Speed 1 mph (NE)    
Max Wind Speed 8 mph    
Max Gust Speed -    
Visibility 9 miles    
Events      
T = Trace of Precipitation, MM = Missing Value Source: NWS Daily Summary

Daily Weather History Graph

Daily Weather History Graph

Search for Another Location

Airport:

Trip Planner

Search our weather history database for the weather conditions in past years. The results will help you decide how hot, cold, wet, or windy it might be!

Date:

Astronomy

Nov. 16, 2012 Rise Set
Actual Time 6:17 AM CST 4:37 PM CST
Civil Twilight 5:50 AM CST 5:04 PM CST
Nautical Twilight 5:20 AM CST 5:34 PM CST
Astronomical Twilight 4:50 AM CST 6:04 PM CST
Moon 9:09 AM CST (11/16) 7:37 PM CST (11/16)
Length of Visible Light 11h 13m
Length of Day
10h 19m
Waxing Crescent, 12% of the Moon is Illuminated
Nov 16
Waxing Crescent
Nov 20
First Quarter
Nov 28
Full
Dec 6
Last Quarter
Dec 13
New

Hourly Weather History & Observations

Time (CST) Temp. Windchill Dew Point Humidity Pressure Visibility Wind Dir Wind Speed Gust Speed Precip Events Conditions
12:15 AM 33.8 °F - 32.0 °F 93% 30.28 in 10.0 mi Calm Calm - N/A   Clear
12:35 AM 33.8 °F - 32.0 °F 93% 30.27 in 10.0 mi Calm Calm - N/A   Clear
12:55 AM 33.8 °F - 32.0 °F 93% 30.27 in 7.0 mi Calm Calm - N/A   Clear
1:15 AM 33.8 °F - 32.0 °F 93% 30.27 in 10.0 mi Calm Calm - N/A   Clear
1:35 AM 33.8 °F - 32.0 °F 93% 30.27 in 7.0 mi Calm Calm - N/A   Clear
1:55 AM 32.0 °F - 32.0 °F 100% 30.27 in 7.0 mi Calm Calm - N/A   Clear
2:15 AM 32.0 °F - 30.2 °F 93% 30.27 in 7.0 mi Calm Calm - N/A   Clear
2:35 AM 32.0 °F - 30.2 °F 93% 30.27 in 7.0 mi Calm Calm - N/A   Clear
2:55 AM 32.0 °F - 30.2 °F 93% 30.27 in 7.0 mi Calm Calm - N/A   Clear
3:15 AM 32.0 °F - 30.2 °F 93% 30.27 in 7.0 mi Calm Calm - N/A   Clear
3:35 AM 32.0 °F - 30.2 °F 93% 30.27 in 7.0 mi Calm Calm - N/A   Clear
3:55 AM 32.0 °F - 30.2 °F 93% 30.27 in 7.0 mi Calm Calm - N/A   Clear
4:15 AM 32.0 °F - 32.0 °F 100% 30.27 in 10.0 mi Calm Calm - N/A   Clear
4:35 AM 32.0 °F - 30.2 °F 93% 30.28 in 7.0 mi Calm Calm - N/A   Clear
4:55 AM 32.0 °F - 30.2 °F 93% 30.28 in 7.0 mi Calm Calm - N/A   Clear
5:15 AM 32.0 °F - 30.2 °F 93% 30.28 in 7.0 mi Calm Calm - N/A   Clear
5:35 AM 32.0 °F - 30.2 °F 93% 30.28 in 10.0 mi Calm Calm - N/A   Clear
5:55 AM 32.0 °F - 30.2 °F 93% 30.28 in 10.0 mi Calm Calm - N/A   Clear
6:15 AM 32.0 °F - 30.2 °F 93% 30.28 in 10.0 mi Calm Calm - N/A   Clear
6:35 AM 32.0 °F - 30.2 °F 93% 30.30 in 10.0 mi Calm Calm - N/A   Clear
6:55 AM 32.0 °F - 30.2 °F 93% 30.30 in 10.0 mi Calm Calm - N/A   Clear
7:15 AM 32.0 °F - 30.2 °F 93% 30.30 in 10.0 mi Calm Calm - N/A   Clear
7:35 AM 32.0 °F - 32.0 °F 100% 30.31 in 10.0 mi Calm Calm - N/A   Clear
7:55 AM 35.6 °F - 32.0 °F 87% 30.31 in 10.0 mi Calm Calm - N/A   Clear
8:15 AM 39.2 °F 37.0 °F 33.8 °F 81% 30.32 in 10.0 mi ENE 3.5 mph - N/A   Clear
8:35 AM 44.6 °F 43.1 °F 35.6 °F 71% 30.32 in 10.0 mi ENE 3.5 mph - N/A   Clear
8:55 AM 46.4 °F 45.2 °F 32.0 °F 57% 30.33 in 10.0 mi NE 3.5 mph - N/A   Clear
9:15 AM 50.0 °F - 32.0 °F 50% 30.33 in 10.0 mi NE 4.6 mph - N/A   Clear
9:35 AM 51.8 °F - 32.0 °F 47% 30.33 in 10.0 mi Calm Calm - N/A   Clear
9:55 AM 51.8 °F - 30.2 °F 44% 30.33 in 10.0 mi Calm Calm - N/A   Clear
10:15 AM 53.6 °F - 32.0 °F 44% 30.32 in 10.0 mi Calm Calm - N/A   Clear
10:35 AM 55.4 °F - 30.2 °F 38% 30.32 in 10.0 mi Calm Calm - N/A   Clear
10:55 AM 55.4 °F - 28.4 °F 36% 30.31 in 10.0 mi NNE 6.9 mph - N/A   Clear
11:15 AM 59.0 °F - 28.4 °F 31% 30.30 in 10.0 mi Calm Calm - N/A   Clear
11:35 AM 57.2 °F - 26.6 °F 31% 30.29 in 10.0 mi Calm Calm - N/A   Clear
11:55 AM 59.0 °F - 26.6 °F 29% 30.29 in 10.0 mi NNE 4.6 mph - N/A   Clear
12:15 PM 59.0 °F - 24.8 °F 27% 30.28 in 10.0 mi NE 4.6 mph - N/A   Clear
12:35 PM 59.0 °F - 24.8 °F 27% 30.27 in 10.0 mi NNE 6.9 mph - N/A   Clear
12:55 PM 60.8 °F - 24.8 °F 25% 30.26 in 10.0 mi NE 3.5 mph - N/A   Clear
1:15 PM 60.8 °F - 24.8 °F 25% 30.26 in 10.0 mi Calm Calm - N/A   Clear
1:35 PM 60.8 °F - 23.0 °F 23% 30.26 in 10.0 mi Calm Calm - N/A   Clear
1:55 PM 60.8 °F - 23.0 °F 23% 30.25 in 10.0 mi North 6.9 mph - N/A   Clear
2:15 PM 60.8 °F - 23.0 °F 23% 30.25 in 10.0 mi Calm Calm - N/A   Clear
2:35 PM 60.8 °F - 19.4 °F 20% 30.25 in 5.0 mi Calm Calm - N/A   Haze
2:55 PM 60.8 °F - 23.0 °F 23% 30.25 in 10.0 mi Calm Calm - N/A   Clear
3:15 PM 60.8 °F - 26.6 °F 27% 30.25 in 10.0 mi Calm Calm - N/A   Clear
3:35 PM 59.0 °F - 23.0 °F 25% 30.26 in 5.0 mi North 8.1 mph - N/A   Haze
3:55 PM 59.0 °F - 21.2 °F 23% 30.26 in 10.0 mi NE 4.6 mph - N/A   Clear
4:15 PM 57.2 °F - 19.4 °F 23% 30.27 in 10.0 mi Calm Calm - N/A   Clear
4:35 PM 55.4 °F - 23.0 °F 29% 30.27 in 10.0 mi Calm Calm - N/A   Clear
4:55 PM 50.0 °F - 26.6 °F 40% 30.28 in 1.2 mi Calm Calm - N/A   Haze
5:15 PM 46.4 °F - 30.2 °F 53% 30.28 in 1.0 mi Calm Calm - N/A   Haze
5:35 PM 46.4 °F - 30.2 °F 53% 30.28 in 10.0 mi Calm Calm - N/A   Clear
5:55 PM 44.6 °F 42.2 °F 30.2 °F 57% 30.29 in 3.0 mi NNE 4.6 mph - N/A   Haze
6:15 PM 44.6 °F - 30.2 °F 57% 30.29 in 10.0 mi Calm Calm - N/A   Clear
6:35 PM 41.0 °F - 32.0 °F 70% 30.30 in 10.0 mi Calm Calm - N/A   Clear
6:55 PM 41.0 °F - 32.0 °F 70% 30.30 in 10.0 mi Calm Calm - N/A   Clear
7:15 PM 39.2 °F - 30.2 °F 70% 30.30 in 10.0 mi Calm Calm - N/A   Clear
7:35 PM 41.0 °F - 30.2 °F 65% 30.30 in 10.0 mi Calm Calm - N/A   Clear
7:55 PM 37.4 °F - 32.0 °F 81% 30.31 in 10.0 mi Calm Calm - N/A   Clear
8:15 PM 35.6 °F - 30.2 °F 81% 30.31 in 10.0 mi Calm Calm - N/A   Clear
8:35 PM 35.6 °F - 32.0 °F 87% 30.32 in 10.0 mi Calm Calm - N/A   Clear
8:55 PM 35.6 °F - 30.2 °F 81% 30.32 in 10.0 mi Calm Calm - N/A   Clear
9:15 PM 33.8 °F - 30.2 °F 87% 30.33 in 10.0 mi Calm Calm - N/A   Clear
9:35 PM 33.8 °F - 30.2 °F 87% 30.33 in 10.0 mi Calm Calm - N/A   Clear
9:55 PM 33.8 °F - 30.2 °F 87% 30.33 in 10.0 mi Calm Calm - N/A   Clear
10:15 PM 33.8 °F - 30.2 °F 87% 30.33 in 7.0 mi Calm Calm - N/A   Clear
10:35 PM 33.8 °F - 30.2 °F 87% 30.33 in 7.0 mi Calm Calm - N/A   Clear
10:55 PM 32.0 °F - 30.2 °F 93% 30.33 in 10.0 mi Calm Calm - N/A   Clear
11:15 PM 32.0 °F - 30.2 °F 93% 30.33 in 10.0 mi Calm Calm - N/A   Clear
11:35 PM 32.0 °F - 28.4 °F 87% 30.33 in 7.0 mi Calm Calm - N/A   Clear
11:55 PM 32.0 °F - 28.4 °F 87% 30.33 in 10.0 mi Calm Calm - N/A   Clear